Terug naar catalogus

SL-16 DEB

ActiefSSO
NORAD 35420·DEBRIS·🇷🇺 Russia

Gelanceerd Dec 10, 2001 vanaf Baikonur Cosmodrome

Loading…

Volgende Passages (komende 24 uur)

TLE

VersSource: Space-Track

Epoch: Sep 14, 2026, 08:11 UTC

1 35420U 01056M   26257.34148984  .00000331  00000-0  37493-3 0  9995
2 35420  99.4641  31.6978 0024207  35.9052 352.5415 13.77786834239050

Volg SL-16 DEB in realtime met AllMySat

Download on the App Store